Forside
METAR-TAF:

METAR-TAF

Lufthavne :

Ludington, Michigan, USA

Breddekreds: 43-58N, længdekreds: 086-24W, højde: 197 m

Aktuelle vejr

Denne rapport blev lavet for 17 minutter siden, kl. 01:35 UTC
Vind stille
Temperatur 17°C
Fugtighed 94%
Tryk 1013 hPa
Sigt: 16.1 km
skyfri

METAR: KLDM 250135Z AUTO 00000KT 10SM CLR 17/16 A2991 RMK AO2 T01730163

Tid: 21:52 (01:52 UTC)


TAF: fraværende

Vejrobservationer og prognoser fra mere end 4000 lufthavne (METAR og TAF).

De gule og røde prikker repræsenterer de meteorologiske stationer.

Flyt musen over at se navnet på stationen.

Så klik over at se vejr observationer og prognoser.

At skifte det kort: Klik på de grønne knapper med et sort kors for at zoome ind; på den grønne knap med en bindestreg for at zoome ud; eller på de grønne pile for tilstødende kort.


METAR-TAF: